Location: Joplin
(37.0842°N, 94.5131°W)
Time: 11:04:57
(UTC-05:00)

ISS - Visible Passes

Search period start: 23 October 2018 00:00
Search period end: 02 November 2018 00:00
Orbit: 402 x 408 km, 51.6° (Epoch: 24 October)

Date Brightness Start Highest point End Pass type
(mag) Time Alt. Az. Time Alt. Az. Time Alt. Az.
25 Oct -3.0 07:04:01 10° SW 07:07:13 54° SE 07:10:25 10° ENE visible
26 Oct -1.7 06:12:33 10° S 06:15:18 26° SE 06:18:05 10° ENE visible
27 Oct -0.8 05:23:13 13° SE 05:23:28 13° SE 05:25:02 10° E visible
27 Oct -3.6 06:56:25 10° WSW 06:59:36 53° NW 07:02:50 10° NE visible
28 Oct -3.8 06:06:55 52° SSW 06:07:33 74° SE 06:10:50 10° NE visible
29 Oct -0.8 05:17:38 17° ENE 05:17:38 17° ENE 05:18:35 10° ENE visible
29 Oct -2.5 06:50:21 16° WNW 06:52:07 24° NNW 06:54:51 10° NNE visible
30 Oct -2.6 06:00:53 31° N 06:00:53 31° N 06:03:03 10° NE visible
31 Oct -1.7 06:43:58 13° NW 06:44:44 14° NNW 06:46:30 10° N visible
01 Nov -1.2 05:54:14 14° NNE 05:54:14 14° NNE 05:54:56 10° NNE visible
